Location: Aciu?a
(46.2833°N, 22.4500°E)
Time: 11:13:15
(UTC+00:00)

Cosmos 1602 Rocket - Pass Details

Date: 25 October 2021
Orbit: 603 x 633 km, 82.5° (Epoch: 07 December)

Event Time Altitude Azimuth Distance (km) Brightness Sun altitude
Rises 16:24:30 0° 357° (N) 2,885 7.0 -10.6°
Reaches altitude 10° 16:26:51 10° 4° (N) 1,972 6.0 -11.0°
Maximum altitude 16:30:59 42° 76° (ENE) 873 3.9 -11.8°
Drops below altitude 10° 16:35:05 10° 148° (SSE) 1,946 5.8 -12.5°
Sets 16:37:22 0° 155° (SSE) 2,843 6.8 -12.9°
